Weather History for Rush City, MN

Change the Weather History Date:

Monday, November 4, 2013

  Actual Average (KCBG) Record (KCBG)
Temperature  
Mean Temperature 39 °F -  
Max Temperature 46 °F 43 °F 70 °F (1975)
Min Temperature 32 °F 25 °F -5 °F (1991)
Degree Days  
Heating Degree Days 26    
Moisture  
Dew Point 35 °F    
Average Humidity 77    
Maximum Humidity 94    
Minimum Humidity 58    
Precipitation  
Precipitation 0.16 in - - ()
Sea Level Pressure  
Sea Level Pressure 29.92 in    
Wind  
Wind Speed 10 mph (South)    
Max Wind Speed 15 mph    
Max Gust Speed 24 mph    
Visibility 10 miles    
Events Rain    
Averages and records for this station are not official NWS values.
T = Trace of Precipitation, MM = Missing Value Source: NWS Daily Summary

Daily Weather History Graph

Daily Weather History Graph

Search for Another Location

Airport:

Trip Planner

Search our weather history database for the weather conditions in past years. The results will help you decide how hot, cold, wet, or windy it might be!

Date:

Astronomy

Nov. 04, 2013 Rise Set
Actual Time 6:56 AM CST 4:53 PM CST
Civil Twilight 6:25 AM CST 5:25 PM CST
Nautical Twilight 5:49 AM CST 6:00 PM CST
Astronomical Twilight 5:15 AM CST 6:35 PM CST
Moon 8:10 AM CST (11/4) 5:55 PM CST (11/4)
Length of Visible Light 11h 00m
Length of Day
9h 57m
New Moon, 2% of the Moon is Illuminated
Nov 4
New Moon
Nov 9
First Quarter
Nov 17
Full
Nov 25
Last Quarter
Dec 2
New

Hourly Weather History & Observations

Time (CST) Temp. Windchill Dew Point Humidity Pressure Visibility Wind Dir Wind Speed Gust Speed Precip Events Conditions
12:15 AM 46.0 °F 40.2 °F 32.4 °F 59% 29.90 in 10.0 mi SSE 12.7 mph 20.7 mph N/A   Overcast
12:35 AM 46.2 °F 40.5 °F 32.4 °F 58% 29.89 in 10.0 mi SSE 12.7 mph 20.7 mph N/A   Overcast
12:54 AM 46.4 °F 40.7 °F 32.4 °F 58% 29.89 in 10.0 mi SSE 12.7 mph 18.4 mph N/A   Overcast
1:15 AM 46.4 °F 40.4 °F 32.4 °F 58% 29.89 in 10.0 mi SSE 13.8 mph 23.0 mph N/A   Overcast
1:34 AM 46.4 °F 40.4 °F 32.4 °F 58% 29.88 in 10.0 mi SSE 13.8 mph 20.7 mph N/A   Overcast
1:55 AM 46.4 °F 40.1 °F 32.4 °F 58% 29.88 in 10.0 mi SSE 15.0 mph 23.0 mph N/A   Overcast
2:15 AM 46.4 °F 40.7 °F 32.4 °F 58% 29.88 in 10.0 mi SSE 12.7 mph 19.6 mph N/A   Overcast
2:34 AM 46.4 °F 40.7 °F 32.4 °F 58% 29.87 in 10.0 mi SSE 12.7 mph 17.3 mph N/A   Overcast
2:55 AM 46.4 °F 40.7 °F 32.4 °F 58% 29.87 in 10.0 mi SSE 12.7 mph 21.9 mph N/A   Overcast
3:15 AM 46.4 °F 40.4 °F 32.5 °F 59% 29.86 in 10.0 mi SE 13.8 mph 24.2 mph N/A   Overcast
3:34 AM 46.4 °F 40.4 °F 32.5 °F 59% 29.86 in 10.0 mi SSE 13.8 mph 19.6 mph N/A   Overcast
3:55 AM 46.4 °F 40.4 °F 32.9 °F 59% 29.85 in 10.0 mi SSE 13.8 mph 18.4 mph N/A   Overcast
4:15 AM 46.4 °F 40.7 °F 33.1 °F 60% 29.85 in 10.0 mi SSE 12.7 mph 18.4 mph N/A   Overcast
4:34 AM 46.4 °F 40.7 °F 33.1 °F 60% 29.85 in 10.0 mi SSE 12.7 mph 18.4 mph N/A   Overcast
4:55 AM 46.4 °F 40.7 °F 33.3 °F 60% 29.86 in 10.0 mi SSE 12.7 mph - N/A   Overcast
5:15 AM 46.4 °F 41.1 °F 33.4 °F 61% 29.86 in 10.0 mi SSE 11.5 mph 17.3 mph N/A   Overcast
5:34 AM 46.4 °F 41.5 °F 33.8 °F 62% 29.85 in 10.0 mi SSE 10.4 mph - N/A   Overcast
5:55 AM 46.0 °F 40.6 °F 34.0 °F 63% 29.85 in 10.0 mi SSE 11.5 mph 18.4 mph N/A   Overcast
6:14 AM 45.9 °F 40.8 °F 34.3 °F 64% 29.84 in 10.0 mi SSE 10.4 mph 19.6 mph N/A   Overcast
6:35 AM 45.7 °F 40.6 °F 34.7 °F 65% 29.85 in 10.0 mi SSE 10.4 mph 17.3 mph N/A   Overcast
6:55 AM 45.5 °F 39.6 °F 34.9 °F 66% 29.84 in 10.0 mi SE 12.7 mph 17.3 mph N/A   Overcast
7:14 AM 45.5 °F 39.2 °F 35.1 °F 67% 29.84 in 10.0 mi SE 13.8 mph 18.4 mph N/A   Overcast
7:35 AM 45.3 °F 39.0 °F 35.2 °F 68% 29.84 in 10.0 mi SSE 13.8 mph 17.3 mph N/A   Overcast
7:55 AM 45.5 °F 39.2 °F 35.2 °F 67% 29.85 in 10.0 mi SSE 13.8 mph 21.9 mph N/A   Overcast
8:14 AM 45.7 °F 39.8 °F 35.6 °F 68% 29.85 in 10.0 mi SSE 12.7 mph 20.7 mph N/A   Overcast
8:35 AM 45.9 °F 40.8 °F 35.8 °F 68% 29.86 in 10.0 mi SSE 10.4 mph 17.3 mph N/A   Overcast
8:55 AM 45.7 °F 40.6 °F 36.5 °F 70% 29.86 in 10.0 mi SSE 10.4 mph 19.6 mph N/A   Overcast
9:14 AM 45.7 °F 39.8 °F 37.4 °F 73% 29.86 in 10.0 mi South 12.7 mph 19.6 mph N/A   Overcast
9:35 AM 44.8 °F 38.7 °F 38.3 °F 78% 29.86 in 10.0 mi South 12.7 mph 17.3 mph N/A Rain Light Rain
9:54 AM 44.1 °F 38.1 °F 39.0 °F 82% 29.85 in 10.0 mi South 11.5 mph 16.1 mph N/A   Overcast
10:15 AM 44.6 °F 40.2 °F 38.5 °F 79% 29.85 in 10.0 mi SSE 8.1 mph 16.1 mph N/A   Overcast
10:35 AM 44.8 °F 39.9 °F 38.3 °F 78% 29.84 in 10.0 mi SSE 9.2 mph 17.3 mph N/A   Overcast
10:54 AM 45.1 °F 39.9 °F 38.3 °F 77% 29.83 in 10.0 mi SSE 10.4 mph - N/A   Overcast
11:15 AM 45.0 °F 40.1 °F 38.5 °F 78% 29.83 in 10.0 mi SSE 9.2 mph - N/A   Overcast
11:34 AM 44.1 °F 39.0 °F 39.4 °F 84% 29.84 in 10.0 mi SSE 9.2 mph 16.1 mph 0.02 in Rain Light Rain
11:55 AM 43.7 °F 39.1 °F 40.1 °F 87% 29.84 in 10.0 mi SSE 8.1 mph - 0.06 in Rain Light Rain
12:14 PM 43.7 °F 38.6 °F 40.6 °F 89% 29.83 in 10.0 mi SSE 9.2 mph - 0.06 in Rain Light Rain
12:35 PM 43.7 °F 39.1 °F 41.4 °F 91% 29.83 in 10.0 mi SSE 8.1 mph - 0.09 in Rain Light Rain
12:55 PM 44.1 °F 39.0 °F 41.9 °F 92% 29.82 in 10.0 mi South 9.2 mph - 0.10 in Rain Light Rain
1:14 PM 44.2 °F 39.7 °F 42.1 °F 92% 29.82 in 10.0 mi SSW 8.1 mph - N/A   Overcast
1:35 PM 44.6 °F 40.7 °F 42.4 °F 92% 29.82 in 10.0 mi South 6.9 mph - N/A   Overcast
1:55 PM 44.8 °F 40.4 °F 42.8 °F 93% 29.83 in 10.0 mi SSW 8.1 mph - N/A   Overcast
2:14 PM 45.0 °F 41.2 °F 42.8 °F 92% 29.84 in 10.0 mi SSW 6.9 mph - N/A   Overcast
2:35 PM 44.8 °F 39.4 °F 42.3 °F 91% 29.85 in 10.0 mi WSW 10.4 mph - N/A   Overcast
2:55 PM 44.6 °F 40.2 °F 41.5 °F 89% 29.86 in 10.0 mi WSW 8.1 mph - N/A   Overcast
3:14 PM 45.3 °F 43.0 °F 41.9 °F 88% 29.87 in 10.0 mi WSW 4.6 mph - N/A   Overcast
3:35 PM 44.6 °F 40.7 °F 40.8 °F 87% 29.89 in 10.0 mi West 6.9 mph - N/A   Overcast
3:54 PM 44.6 °F 41.4 °F 40.1 °F 84% 29.90 in 10.0 mi West 5.8 mph - N/A   Overcast
4:15 PM 44.6 °F 39.7 °F 39.4 °F 82% 29.92 in 10.0 mi West 9.2 mph - N/A   Overcast
4:35 PM 43.7 °F 38.1 °F 37.9 °F 80% 29.93 in 10.0 mi West 10.4 mph 19.6 mph N/A   Overcast
4:54 PM 42.8 °F 38.6 °F 37.4 °F 81% 29.94 in 10.0 mi West 6.9 mph - N/A   Overcast
5:15 PM 42.8 °F 39.3 °F 37.6 °F 82% 29.95 in 10.0 mi WSW 5.8 mph - N/A   Overcast
5:35 PM 42.6 °F 36.3 °F 36.7 °F 79% 29.98 in 10.0 mi West 11.5 mph 19.6 mph N/A   Overcast
5:54 PM 41.2 °F 36.0 °F 34.5 °F 77% 29.99 in 10.0 mi WSW 8.1 mph 16.1 mph N/A   Mostly Cloudy
6:15 PM 39.4 °F 37.2 °F 33.3 °F 79% 30.00 in 10.0 mi WSW 3.5 mph - N/A   Scattered Clouds
6:34 PM 38.3 °F 35.9 °F 32.9 °F 81% 30.01 in 10.0 mi WSW 3.5 mph - N/A   Scattered Clouds
6:55 PM 37.4 °F 34.9 °F 32.2 °F 81% 30.02 in 10.0 mi WSW 3.5 mph - N/A   Clear
7:15 PM 36.5 °F - 32.0 °F 84% 30.02 in 10.0 mi Calm Calm - N/A   Clear
7:34 PM 34.9 °F - 31.5 °F 87% 30.02 in 10.0 mi Calm Calm - N/A   Clear
7:55 PM 33.8 °F - 31.5 °F 91% 30.03 in 10.0 mi Calm Calm - N/A   Clear
8:15 PM 32.5 °F 29.3 °F 30.9 °F 94% 30.04 in 10.0 mi South 3.5 mph - N/A   Clear
8:34 PM 33.4 °F - 32.0 °F 94% 30.05 in 10.0 mi Calm Calm - N/A   Clear
8:55 PM 34.3 °F 31.4 °F 32.0 °F 91% 30.06 in 10.0 mi SSW 3.5 mph - N/A   Clear
9:15 PM 34.7 °F 30.6 °F 32.0 °F 90% 30.07 in 10.0 mi SSW 4.6 mph - N/A   Scattered Clouds
9:35 PM 34.9 °F 30.8 °F 32.0 °F 89% 30.08 in 10.0 mi SSW 4.6 mph - N/A   Clear
9:55 PM 35.1 °F 32.2 °F 32.0 °F 89% 30.09 in 10.0 mi SSW 3.5 mph - N/A   Clear
10:15 PM 34.7 °F 31.8 °F 32.0 °F 90% 30.10 in 10.0 mi SSW 3.5 mph - N/A   Clear
10:35 PM 34.7 °F 31.8 °F 32.0 °F 90% 30.10 in 10.0 mi WSW 3.5 mph - N/A   Clear
10:55 PM 34.2 °F - 31.8 °F 91% 30.10 in 10.0 mi Calm Calm - N/A   Clear
11:15 PM 32.9 °F - 30.9 °F 92% 30.10 in 10.0 mi Calm Calm - N/A   Clear
11:35 PM 32.7 °F - 30.9 °F 93% 30.12 in 10.0 mi Calm Calm - N/A   Clear
11:55 PM 32.2 °F - 30.6 °F 94% 30.13 in 10.0 mi Calm Calm - N/A   Clear